Dewpoint
33 22 14 16 22 19 15 15 15 16 20 20 18 18 20 21 20 22 20 19 22 23 26 29 32 36 44 47 46 46 48 48 52 53 52 52 52 52 53 54 54 53 53 52
24 17 21 26 26 25 24 20 17 19 23 23 18 17 17 18 19 18 16 14 16 22 26 28 32 42 45 42 44 46 47 49 51 52 53 52 52 53 53 54 54 53 53 53
17 18 27 25 23 22 20 17 11 14 20 21 20 12 8 17 20 19 18 17 20 24 28 29 36 40 39 40 45 47 49 50 52 52 52 52 52 52 53 52 52 52 52 52
23 27 26 24 21 20 9 17 19 20 17 9 17 5 6 7 14 15 13 13 18 23 28 30 33 33 39 44 49 50 50 51 52 52 51 51 50 50 50 50 50 50 50 51
15 21 23 21 17 20 11 22 21 21 16 16 14 14 7 13 10 11 15 23 25 26 29 30 30 33 41 46 49 50 50 51 52 53 52 51 50 51 50 50 50 50 50 50
25 29 26 21 23 23 23 21 21 23 19 16 11 13 4 2 11 13 19 23 27 28 29 28 31 36 42 48 50 51 51 51 51 52 52 52 50 51 50 50 50 51 51 51
17 17 26 27 22 24 23 19 13 7 17 2 14 14 9 12 17 21 23 26 27 27 27 30 31 33 42 47 50 51 51 51 51 52 52 51 52 52 51 50 51 51 51 51
19 11 20 26 23 21 21 20 9 -4 -8 -8 9 10 8 20 23 24 26 27 28 29 29 29 30 35 45 48 50 50 49 49 50 50 51 51 52 52 52 52 52 51 51 51
20 15 22 21 21 21 19 17 19 15 11 10 8 5 12 17 21 25 27 29 31 33 34 37 41 45 47 48 48 49 48 48 49 49 51 52 52 52 52 53 52 52 52 51
23 17 20 22 20 22 18 20 13 13 8 3 3 2 6 20 25 26 24 26 29 31 36 40 43 45 46 47 48 49 48 48 48 50 51 53 53 53 53 52 51 51 50 50
19 20 13 16 10 15 14 11 12 16 18 10 10 3 25 24 21 20 21 23 26 30 31 32 34 39 43 45 47 48 48 48 49 49 50 52 52 53 52 52 51 50 49 49
13 15 14 9 11 15 17 13 14 13 10 9 12 11 19 22 25 23 18 20 22 26 28 30 32 33 33 37 42 45 48 48 47 48 49 51 52 53 52 51 50 50 48 49
10 7 -0 -8 1 5 1 -2 -4 -2 0 5 9 8 23 15 21 26 26 27 23 22 22 22 25 28 30 33 34 40 44 48 49 50 50 51 52 52 51 51 50 49 48 48
7 10 6 0 -1 -0 1 2 4 6 6 3 1 1 4 18 18 24 24 26 27 24 20 19 21 22 26 28 31 34 38 45 47 49 49 49 50 51 51 51 49 49 48 48
9 6 5 5 4 5 5 5 7 7 8 9 9 8 12 15 17 20 23 21 22 22 23 20 17 20 24 26 27 32 36 41 45 47 47 47 47 49 49 50 49 48 48 47
11 7 9 6 2 1 4 9 12 8 8 6 9 12 16 17 18 16 19 15 14 14 15 16 16 19 22 25 26 29 33 37 43 45 45 45 45 46 48 48 48 47 47 47
12 11 6 -1 -0 0 3 12 12 12 10 10 5 10 13 9 10 13 19 12 10 8 7 10 10 18 21 25 27 28 30 35 43 43 43 43 43 44 45 48 47 46 46 46
12 13 7 3 0 -7 15 14 17 11 10 11 11 10 8 8 7 10 21 9 6 7 7 8 9 13 21 24 27 28 31 35 42 40 40 41 42 42 43 44 46 46 47 46
15 14 6 3 -4 -6 12 8 9 9 7 10 7 6 6 6 7 9 18 7 7 7 7 8 9 11 20 25 27 27 29 35 40 39 38 39 41 41 41 41 43 44 43 42
15 16 13 2 -0 -5 6 7 7 8 5 8 6 6 6 6 4 3 6 7 7 7 8 8 10 12 16 24 26 26 28 33 36 37 37 39 40 39 39 40 40 41 40 40
3 8 7 0 -1 -2 9 7 5 6 3 7 6 6 6 6 6 7 7 7 8 8 8 9 9 12 13 23 25 25 28 30 33 37 36 38 39 38 38 38 39 39 39 39
9 6 2 6 3 -2 10 5 4 7 7 7 7 7 7 8 8 7 7 8 8 8 8 9 9 11 13 22 24 25 26 30 32 36 35 37 37 37 38 38 38 38 37 36
7 9 8 8 6 12 9 6 11 9 8 9 8 8 8 8 8 8 8 8 8 8 9 9 10 10 12 20 24 23 26 29 31 33 35 35 36 36 36 36 36 35 35 35
9 7 8 4 8 5 3 11 6 7 9 11 11 11 10 9 8 9 8 9 9 9 10 10 11 12 12 15 21 24 27 29 30 31 34 35 35 35 34 34 34 34 33 34
6 5 4 3 3 3 9 5 6 7 8 8 9 10 10 11 11 9 10 10 10 10 11 12 13 13 14 15 19 22 26 29 29 31 32 34 35 35 35 35 34 34 34 33
6 5 3 1 3 6 5 6 7 10 9 11 12 11 10 11 13 13 12 12 12 13 15 16 16 16 16 16 19 19 26 28 29 31 31 32 33 33 33 32 32 34 33 33
Wind_Speed
2 5 9 4 6 3 5 8 13 16 9 7 19 25 21 20 19 23 24 23 23 23 20 17 14 14 12 9 7 6 5 6 4 4 5 6 7 8 9 10 10 10 10 12
3 7 2 1 2 5 6 9 16 14 10 8 16 27 23 23 27 23 23 21 21 16 13 15 17 14 12 7 6 7 8 6 6 7 6 5 5 8 11 10 11 11 12 12
6 1 6 3 6 8 11 14 15 14 6 10 13 27 20 9 13 16 22 23 18 16 12 12 15 13 7 6 6 7 6 7 7 8 6 6 5 7 9 10 10 11 12 14
9 1 5 5 8 9 18 12 14 9 7 12 1 17 26 16 10 13 20 19 19 14 9 13 12 8 6 5 4 5 5 6 7 8 8 10 10 11 12 9 8 10 11 14
4 3 6 11 12 11 7 3 5 6 12 14 17 10 19 6 12 10 5 11 12 8 11 13 9 6 5 3 3 4 4 5 7 9 10 10 13 13 12 11 12 12 13 15
16 3 5 9 5 10 2 3 4 4 8 13 21 18 23 17 5 8 5 10 6 5 8 5 3 3 4 2 2 5 5 6 7 10 12 14 15 14 13 14 13 14 13 13
7 10 3 3 7 2 7 8 6 8 9 17 1 11 26 15 14 8 11 8 2 1 2 2 2 2 1 2 1 3 4 6 8 10 12 13 16 17 19 19 17 16 15 14
7 6 1 2 2 5 7 7 12 16 24 26 8 13 16 2 5 6 10 9 8 8 8 8 6 1 2 2 2 5 5 7 10 11 13 15 16 15 16 18 17 15 15 15
7 7 3 4 6 4 1 10 10 18 26 27 27 27 18 16 3 8 11 12 14 14 12 11 7 6 6 5 6 8 7 8 12 13 14 15 15 16 16 17 17 14 14 13
4 14 1 6 8 4 6 12 13 14 24 34 24 30 22 2 8 13 14 15 14 15 16 15 13 12 11 10 10 9 8 11 14 15 15 14 15 15 16 15 16 15 13 13
8 4 10 16 5 13 19 20 19 19 11 23 29 29 15 15 18 19 17 17 16 15 16 17 18 18 16 15 14 13 12 12 13 14 16 16 16 16 14 14 15 16 13 13
4 6 13 27 21 9 9 6 13 8 11 13 16 21 16 20 21 24 21 19 16 15 17 19 20 19 20 21 20 18 16 14 14 14 15 16 17 13 14 14 15 14 13 11
5 3 12 18 4 2 10 30 21 20 20 29 23 9 2 22 23 13 16 24 20 16 20 21 22 22 25 23 24 22 21 17 16 13 12 14 13 12 13 15 14 14 14 11
3 2 8 16 21 24 25 24 22 20 18 26 26 31 31 23 21 19 19 17 21 21 22 22 25 25 24 25 25 26 26 21 19 13 10 10 10 10 10 12 14 13 12 10
5 5 5 15 18 19 19 19 14 12 14 16 27 30 17 22 24 23 18 23 24 28 26 23 24 24 26 28 29 30 29 26 23 12 9 10 11 9 6 7 9 11 11 8
2 3 8 13 11 14 15 8 8 8 12 9 13 8 18 19 18 22 17 22 24 24 24 26 25 27 27 27 29 31 30 29 26 13 10 9 9 8 7 5 7 11 9 9
3 2 7 9 12 19 7 7 5 3 7 9 9 14 22 27 27 26 14 19 25 27 28 26 28 27 25 26 28 31 33 31 22 10 10 12 11 7 6 4 7 11 10 8
4 5 5 11 10 10 7 9 4 8 2 9 10 16 20 23 28 25 2 22 26 28 29 28 26 26 26 25 27 31 31 30 16 11 12 12 12 8 7 6 5 9 6 7
14 4 6 6 12 15 7 6 7 7 7 10 16 20 22 27 24 12 12 29 28 28 27 27 26 27 24 23 26 30 31 26 16 12 11 10 10 9 8 8 10 9 9 8
7 8 7 13 13 14 4 13 16 7 11 16 20 22 25 27 22 19 29 34 31 28 26 29 28 26 22 22 24 27 29 24 20 14 11 9 10 9 9 10 12 12 12 11
6 5 11 12 14 9 8 18 16 7 12 26 23 22 24 22 21 33 34 32 30 29 30 28 26 23 21 21 23 25 26 23 23 15 9 7 9 9 10 12 13 14 13 16
4 5 6 4 8 8 14 5 7 9 17 22 22 23 26 27 30 31 32 32 32 31 29 27 26 24 21 20 19 22 23 25 22 17 9 8 9 9 9 13 13 15 16 18
3 2 4 3 5 4 10 10 1 12 19 19 23 25 27 29 30 32 31 32 30 30 28 25 24 26 21 18 16 22 22 24 23 15 9 7 9 10 10 13 14 15 15 17
2 6 4 7 1 13 15 5 13 19 19 21 22 24 26 30 31 32 32 30 30 28 27 25 24 25 24 19 17 19 20 22 22 12 7 6 9 12 13 13 13 14 14 15
2 6 5 7 5 16 4 16 22 22 21 24 24 24 26 27 28 30 30 31 29 28 26 24 24 23 24 20 18 18 17 19 20 10 3 6 8 14 18 18 14 17 16 14
3 2 3 5 13 10 20 22 21 21 24 24 25 28 26 24 26 27 29 29 28 28 27 25 24 24 23 19 17 16 15 16 17 8 1 5 8 13 16 20 23 27 27 28
Wind_Direction
48 247 243 270 248 290 280 276 274 274 271 269 263 267 263 260 265 260 264 267 263 258 256 238 234 211 206 217 228 239 258 268 230 215 213 233 226 221 229 234 233 236 240 242
226 251 278 156 160 218 239 268 273 281 277 241 282 277 273 261 257 260 264 266 266 261 248 242 208 194 203 215 236 251 262 255 228 215 232 229 233 229 232 225 235 242 246 246
242 147 141 213 227 238 247 250 276 278 305 249 284 282 271 250 240 259 262 264 267 264 263 206 188 192 193 212 232 256 269 255 219 201 212 235 243 261 246 233 237 238 240 241
271 135 215 215 250 225 277 237 254 260 285 279 278 287 287 283 249 251 263 274 271 255 227 193 183 179 191 207 238 262 270 258 222 197 204 215 225 241 249 251 253 261 245 245
278 236 229 240 244 203 264 161 229 247 262 286 253 253 275 230 275 276 291 334 308 251 192 174 169 164 172 203 257 263 264 258 237 224 219 224 233 245 252 254 262 267 264 258
259 293 247 245 269 225 120 243 254 245 252 254 261 221 273 285 262 310 292 336 335 182 173 167 157 169 167 118 260 262 265 268 253 244 240 238 242 244 246 251 257 263 266 258
303 252 262 234 269 228 223 240 258 245 224 254 180 225 253 286 287 296 306 309 202 169 270 288 260 208 131 28 318 285 271 286 277 263 258 248 243 243 248 254 258 262 255 244
315 304 353 105 334 334 229 244 254 267 273 282 247 249 246 237 28 60 61 50 42 28 7 345 334 323 39 7 310 291 290 288 281 267 259 254 248 241 241 249 254 257 247 241
325 259 346 4 332 305 202 249 311 279 273 270 264 264 261 256 115 47 31 33 20 11 9 9 20 27 21 350 324 283 292 298 286 281 280 265 252 244 238 238 250 249 240 240
15 291 225 353 340 190 346 328 287 259 273 268 264 268 269 4 348 358 7 9 10 11 15 14 13 10 1 349 327 316 307 297 295 291 283 272 255 243 240 239 245 238 242 246
350 244 264 325 315 319 316 305 292 294 272 277 272 266 35 17 2 352 354 355 2 10 12 6 5 4 2 353 340 327 312 307 301 298 295 282 272 257 243 239 243 237 236 245
3 299 289 296 307 317 293 71 23 344 306 309 293 272 44 31 10 355 349 351 353 13 16 11 4 358 358 351 345 335 325 313 305 299 294 279 270 254 241 239 239 229 223 234
351 248 303 301 145 79 343 313 313 306 276 269 282 279 299 347 343 339 355 342 341 5 14 13 6 1 358 343 337 337 331 325 313 309 306 297 270 250 243 240 237 221 213 222
335 274 266 279 288 299 302 309 308 302 290 291 278 286 306 358 356 344 356 356 344 350 7 5 3 354 344 343 343 336 333 329 320 313 317 316 309 288 261 243 231 212 195 216
12 276 308 285 292 297 301 308 332 349 329 290 309 291 5 347 340 333 3 353 347 354 354 357 350 345 346 343 341 337 329 329 326 321 333 332 329 322 309 277 229 182 175 183
319 264 317 304 306 315 317 359 346 360 352 334 350 75 355 336 332 339 348 354 346 345 338 352 337 350 340 340 335 329 327 321 320 318 338 340 345 344 333 332 174 157 158 168
232 257 312 281 320 315 229 5 349 350 14 334 354 328 334 335 337 331 324 352 346 335 339 339 343 340 335 333 329 327 321 314 305 325 349 354 349 351 356 14 157 160 176 180
218 218 269 289 300 302 94 44 335 332 89 16 344 334 331 328 320 309 25 353 339 334 334 334 332 329 333 329 328 325 322 313 314 353 356 0 350 357 23 45 92 152 179 194
214 248 296 271 303 290 203 39 342 343 278 14 345 337 335 333 321 301 319 342 330 326 327 324 323 323 326 326 326 321 323 322 334 351 350 353 0 15 30 56 66 82 79 72
190 244 266 294 288 290 54 335 317 298 257 5 348 337 335 336 327 306 325 325 321 322 322 318 317 318 321 328 320 324 325 326 329 336 338 353 17 30 44 63 67 75 74 66
285 249 256 280 291 286 3 332 311 274 309 338 337 328 323 317 302 303 312 313 314 315 316 315 314 312 321 324 322 320 319 324 321 328 335 11 32 43 61 68 67 75 72 73
278 289 277 283 290 280 9 346 349 331 321 321 321 319 313 309 308 306 308 310 313 313 314 314 314 312 317 319 317 311 312 319 320 327 348 27 42 57 66 79 76 79 78 72
248 343 311 286 318 347 333 303 107 329 318 316 315 316 314 310 309 310 309 309 309 310 311 311 309 307 308 307 308 305 307 315 322 325 360 26 53 55 64 79 81 79 79 80
113 10 259 319 113 337 326 122 334 334 320 316 315 311 309 308 309 309 309 307 307 309 310 308 305 300 299 302 300 295 304 314 321 322 1 13 79 72 65 66 71 76 76 81
353 322 321 274 310 338 162 328 331 324 322 320 317 315 311 311 309 309 307 305 305 306 306 303 298 292 291 296 295 297 311 312 317 321 356 51 83 90 80 68 67 73 65 81
358 339 305 288 324 308 298 315 320 323 322 320 320 317 318 316 312 310 306 304 304 304 302 297 292 288 288 291 290 298 303 309 314 312 28 81 94 97 98 96 84 75 81 79